Jaffrey, NH

3:00 PM EST on January 20, 2017 (GMT -0500)
Jaffrey Airport-Silver Ranch

Weather History for KAFN - August, 2013

Change the Weather History Date:

Thursday, August 29, 2013

  Actual Average Record
Temperature  
Mean Temperature 63 °F -  
Max Temperature 66 °F 73 °F 89 °F (2010)
Min Temperature 60 °F 52 °F 45 °F (2003)
Degree Days  
Heating Degree Days 2    
Growing Degree Days 13 (Base 50)    
Moisture  
Dew Point 61 °F    
Average Humidity 93    
Maximum Humidity 100    
Minimum Humidity 88    
Precipitation  
Precipitation 0.64 in - - ()
Sea Level Pressure  
Sea Level Pressure 30.07 in    
Wind  
Wind Speed 2 mph (NNE)    
Max Wind Speed 8 mph    
Max Gust Speed -    
Visibility 6 miles    
Events Rain , Thunderstorm    
Averages and records for this station are not official NWS values.
T = Trace of Precipitation, MM = Missing Value Source: NWS Daily Summary

Daily Weather History Graph

Daily Weather History Graph

Search for Another Location

Airport or City:

Trip Planner

Search our weather history database for the weather conditions in past years. The results will help you decide how hot, cold, wet, or windy it might be!

Date:

Astronomy

Aug. 29, 2013 Rise Set
Actual Time 6:09 AM EDT 7:27 PM EDT
Civil Twilight 5:40 AM EDT 7:56 PM EDT
Nautical Twilight 5:05 AM EDT 8:31 PM EDT
Astronomical Twilight 4:27 AM EDT 9:08 PM EDT
Moon No Moon Rise 2:57 PM EDT (8/29)
Length of Visible Light 14h 16m
Length of Day
13h 17m
Last Quarter, 38% of the Moon is Illuminated
Aug 29
Last Quarter
Sep 5
New
Sep 12
First Quarter
Sep 19
Full
Sep 26
Last Quarter

Hourly Weather History & Observations

Time (EDT) Temp. Dew Point Humidity Pressure Visibility Wind Dir Wind Speed Gust Speed Precip Events Conditions
12:04 AM 62.6 °F 62.6 °F 100% 30.03 in 4.0 mi Variable 4.6 mph - 0.07 in Rain , Thunderstorm Thunderstorms and Rain
12:08 AM 62.6 °F 62.6 °F 100% 30.02 in 1.8 mi Variable 6.9 mph - 0.19 in Rain , Thunderstorm Heavy Thunderstorms and Rain
12:15 AM 62.6 °F 62.6 °F 100% 30.02 in 1.2 mi Variable 3.5 mph - 0.30 in Rain , Thunderstorm Heavy Thunderstorms and Rain
12:20 AM 62.6 °F 60.8 °F 94% 30.03 in 2.0 mi Calm Calm - 0.32 in Rain , Thunderstorm Thunderstorms and Rain
12:45 AM 62.6 °F 60.8 °F 94% 30.02 in 4.0 mi Calm Calm - 0.44 in Rain , Thunderstorm Thunderstorms and Rain
12:52 AM 63.0 °F 61.0 °F 93% 30.01 in 5.0 mi Calm Calm - 0.45 in Rain , Thunderstorm Rain
1:06 AM 62.6 °F 60.8 °F 94% 30.01 in 5.0 mi Variable 3.5 mph - 0.03 in Rain Rain
1:52 AM 63.0 °F 61.0 °F 93% 29.99 in 6.0 mi Calm Calm - 0.14 in Rain Light Rain
2:44 AM 62.6 °F 60.8 °F 94% 29.98 in 8.0 mi Calm Calm - 0.02 in   Scattered Clouds
2:52 AM 63.0 °F 61.0 °F 93% 29.99 in 8.0 mi Calm Calm - 0.02 in   Scattered Clouds
3:01 AM 62.6 °F 60.8 °F 94% 29.99 in 8.0 mi Calm Calm - N/A   Mostly Cloudy
3:08 AM 62.6 °F 60.8 °F 94% 30.00 in 8.0 mi Calm Calm - N/A   Mostly Cloudy
3:52 AM 63.0 °F 62.1 °F 97% 30.01 in 6.0 mi Calm Calm - N/A   Overcast
4:28 AM 62.6 °F 60.8 °F 94% 30.02 in 8.0 mi Variable 3.5 mph - N/A   Overcast
4:52 AM 63.0 °F 61.0 °F 93% 30.03 in 8.0 mi Variable 3.5 mph - N/A   Overcast
5:52 AM 63.0 °F 61.0 °F 93% 30.04 in 6.0 mi Calm Calm - N/A   Overcast
6:27 AM 62.6 °F 62.6 °F 100% 30.05 in 2.5 mi Calm Calm - 0.00 in Rain Light Rain
6:36 AM 62.6 °F 62.6 °F 100% 30.05 in 3.0 mi North 3.5 mph - 0.01 in Rain Light Rain
6:44 AM 62.6 °F 62.6 °F 100% 30.06 in 2.5 mi Variable 4.6 mph - 0.01 in Rain Light Rain
6:52 AM 63.0 °F 62.1 °F 97% 30.06 in 1.5 mi Calm Calm - 0.01 in Rain Light Rain
7:29 AM 64.4 °F 62.6 °F 94% 30.07 in 3.0 mi Variable 3.5 mph - 0.01 in Rain Light Rain
7:52 AM 64.0 °F 62.1 °F 93% 30.09 in 2.0 mi Variable 5.8 mph - 0.01 in Rain Light Rain
7:59 AM 64.4 °F 62.6 °F 94% 30.08 in 3.0 mi ENE 8.1 mph - 0.00 in   Overcast
8:15 AM 64.4 °F 62.6 °F 94% 30.08 in 6.0 mi Calm Calm - 0.00 in   Overcast
8:52 AM 64.0 °F 62.1 °F 93% 30.09 in 5.0 mi Calm Calm - 0.00 in   Overcast
8:59 AM 64.4 °F 62.6 °F 94% 30.09 in 4.0 mi Calm Calm - N/A   Overcast
9:52 AM 64.9 °F 63.0 °F 93% 30.10 in 7.0 mi Calm Calm - N/A   Overcast
10:52 AM 66.0 °F 63.0 °F 90% 30.10 in 10.0 mi Variable 3.5 mph - 0.00 in   Overcast
11:09 AM 64.4 °F 62.6 °F 94% 30.10 in 5.0 mi Variable 3.5 mph - 0.00 in Rain Light Rain
11:52 AM 64.0 °F 61.0 °F 90% 30.11 in 10.0 mi Calm Calm - 0.00 in   Overcast
12:17 PM 62.6 °F 60.8 °F 94% 30.10 in 4.0 mi Calm Calm - N/A   Overcast
12:52 PM 62.1 °F 61.0 °F 96% 30.12 in 3.0 mi Variable 3.5 mph - N/A   Overcast
1:04 PM 62.6 °F 60.8 °F 94% 30.10 in 2.5 mi Variable 4.6 mph - N/A   Overcast
1:12 PM 62.6 °F 60.8 °F 94% 30.10 in 4.0 mi Calm Calm - N/A   Overcast
1:52 PM 62.1 °F 60.1 °F 93% 30.11 in 3.0 mi NNE 3.5 mph - N/A   Overcast
2:02 PM 62.6 °F 60.8 °F 94% 30.10 in 2.5 mi Calm Calm - N/A   Overcast
2:27 PM 62.6 °F 60.8 °F 94% 30.10 in 4.0 mi Calm Calm - 0.01 in   Overcast
2:41 PM 62.6 °F 60.8 °F 94% 30.09 in 2.5 mi Calm Calm - 0.01 in   Overcast
2:48 PM 62.6 °F 60.8 °F 94% 30.09 in 4.0 mi Calm Calm - 0.01 in   Overcast
2:52 PM 63.0 °F 60.1 °F 90% 30.11 in 4.0 mi Calm Calm - 0.01 in   Overcast
3:36 PM 62.6 °F 60.8 °F 94% 30.08 in 6.0 mi Calm Calm - 0.00 in   Overcast
3:52 PM 63.0 °F 60.1 °F 90% 30.10 in 9.0 mi Variable 3.5 mph - 0.00 in   Overcast
4:26 PM 62.6 °F 59.0 °F 88% 30.08 in 8.0 mi Calm Calm - N/A   Overcast
4:52 PM 62.1 °F 59.0 °F 90% 30.10 in 10.0 mi Calm Calm - N/A   Overcast
5:44 PM 60.8 °F 59.0 °F 94% 30.09 in 8.0 mi Calm Calm - N/A   Overcast
5:52 PM 61.0 °F 59.0 °F 93% 30.10 in 7.0 mi Calm Calm - N/A   Overcast
6:52 PM 61.0 °F 57.9 °F 90% 30.09 in 10.0 mi Calm Calm - N/A   Overcast
7:36 PM 60.8 °F 57.2 °F 88% 30.08 in 10.0 mi Calm Calm - N/A   Overcast
7:52 PM 61.0 °F 57.9 °F 90% 30.10 in 10.0 mi Calm Calm - N/A   Overcast
8:30 PM 60.8 °F 57.2 °F 88% 30.09 in 10.0 mi Calm Calm - N/A   Overcast
8:52 PM 61.0 °F 57.9 °F 90% 30.11 in 10.0 mi Calm Calm - N/A   Overcast
9:13 PM 60.8 °F 57.2 °F 88% 30.09 in 10.0 mi Calm Calm - N/A   Overcast
9:52 PM 60.1 °F 57.9 °F 93% 30.11 in 10.0 mi Calm Calm - N/A   Overcast
10:52 PM 60.1 °F 57.0 °F 90% 30.09 in 10.0 mi Calm Calm - N/A   Overcast
11:11 PM 60.8 °F 57.2 °F 88% 30.07 in 10.0 mi Calm Calm - N/A   Overcast
11:52 PM 60.1 °F 57.9 °F 93% 30.07 in 10.0 mi Calm Calm - N/A   Overcast
11:59 PM 60.8 °F 57.2 °F 88% 30.05 in 10.0 mi Variable 3.5 mph - N/A   Overcast